Time,TemperatureF,DewpointF,PressureIn,WindDirection,WindDirectionDegrees,WindSpeedMPH,WindSpeedGustMPH,Humidity,HourlyPrecipIn,Conditions,Clouds,dailyrainin,SoftwareType,DateUTC
2013-01-07 00:00:00,26.4,22.2,30.26,West,271,0.0,0.0,84,0.00,,,0.00,Wunderground v.1.15,2013-01-07 05:00:00,
2013-01-07 00:05:00,26.4,22.2,30.26,West,271,0.0,0.0,84,0.00,,,0.00,Wunderground v.1.15,2013-01-07 05:05:00,
2013-01-07 00:10:00,26.4,22.2,30.26,West,271,0.0,1.0,84,0.00,,,0.00,Wunderground v.1.15,2013-01-07 05:10:00,
2013-01-07 00:15:00,26.4,22.2,30.26,WNW,283,0.0,1.0,84,0.00,,,0.00,Wunderground v.1.15,2013-01-07 05:15:00,
2013-01-07 00:20:00,26.4,22.2,30.26,WNW,283,0.0,1.0,84,0.00,,,0.00,Wunderground v.1.15,2013-01-07 05:20:00,
2013-01-07 00:30:00,26.6,22.4,30.26,West,279,0.0,0.0,84,0.00,,,0.00,Wunderground v.1.15,2013-01-07 05:30:00,
2013-01-07 00:40:00,26.6,22.4,30.26,WSW,240,0.0,0.0,84,0.00,,,0.00,Wunderground v.1.15,2013-01-07 05:40:00,
2013-01-07 00:45:00,26.6,22.4,30.27,WSW,240,0.0,0.0,84,0.00,,,0.00,Wunderground v.1.15,2013-01-07 05:45:00,
2013-01-07 00:55:00,26.6,22.4,30.27,WSW,240,0.0,2.0,84,0.00,,,0.00,Wunderground v.1.15,2013-01-07 05:55:00,
2013-01-07 01:00:00,26.6,22.4,30.28,WSW,240,0.0,1.0,84,0.00,,,0.00,Wunderground v.1.15,2013-01-07 06:00:00,
2013-01-07 01:10:00,26.6,22.7,30.28,WSW,240,0.0,0.0,85,0.00,,,0.00,Wunderground v.1.15,2013-01-07 06:10:00,
2013-01-07 01:15:00,26.6,22.4,30.28,WSW,240,0.0,0.0,84,0.00,,,0.00,Wunderground v.1.15,2013-01-07 06:15:00,
2013-01-07 01:25:00,26.6,22.7,30.28,WSW,240,0.0,0.0,85,0.00,,,0.00,Wunderground v.1.15,2013-01-07 06:25:00,
2013-01-07 01:30:00,26.6,22.7,30.28,WSW,240,0.0,0.0,85,0.00,,,0.00,Wunderground v.1.15,2013-01-07 06:30:00,
2013-01-07 01:40:00,26.6,22.7,30.28,WSW,240,0.0,0.0,85,0.00,,,0.00,Wunderground v.1.15,2013-01-07 06:40:00,
2013-01-07 01:45:00,26.6,22.7,30.29,SSW,194,0.0,0.0,85,0.00,,,0.00,Wunderground v.1.15,2013-01-07 06:45:00,
2013-01-07 01:55:00,26.6,22.7,30.29,SE,136,0.0,0.0,85,0.00,,,0.00,Wunderground v.1.15,2013-01-07 06:55:00,
2013-01-07 02:00:00,26.6,22.7,30.29,ESE,122,0.0,0.0,85,0.00,,,0.00,Wunderground v.1.15,2013-01-07 07:00:00,
2013-01-07 02:05:00,26.6,22.7,30.29,ESE,122,0.0,0.0,85,0.00,,,0.00,Wunderground v.1.15,2013-01-07 07:05:00,
2013-01-07 02:15:00,26.6,22.7,30.30,SW,221,0.0,1.0,85,0.00,,,0.00,Wunderground v.1.15,2013-01-07 07:15:00,
2013-01-07 02:25:00,26.7,22.8,30.30,SW,221,0.0,0.0,85,0.00,,,0.00,Wunderground v.1.15,2013-01-07 07:25:00,
2013-01-07 02:30:00,26.7,22.8,30.30,SW,221,0.0,0.0,85,0.00,,,0.00,Wunderground v.1.15,2013-01-07 07:30:00,
2013-01-07 02:40:00,26.7,22.8,30.30,SW,221,0.0,0.0,85,0.00,,,0.00,Wunderground v.1.15,2013-01-07 07:40:00,
2013-01-07 02:45:00,26.9,23.0,30.30,SW,221,0.0,0.0,85,0.00,,,0.00,Wunderground v.1.15,2013-01-07 07:45:00,
2013-01-07 02:55:00,26.9,23.0,30.30,SW,221,0.0,0.0,85,0.00,,,0.00,Wunderground v.1.15,2013-01-07 07:55:00,
2013-01-07 03:00:00,26.9,23.0,30.30,SW,221,0.0,0.0,85,0.00,,,0.00,Wunderground v.1.15,2013-01-07 08:00:00,
2013-01-07 03:10:00,26.9,23.0,30.30,SW,221,0.0,0.0,85,0.00,,,0.00,Wunderground v.1.15,2013-01-07 08:10:00,
2013-01-07 03:15:00,26.9,23.0,30.30,SW,221,0.0,0.0,85,0.00,,,0.00,Wunderground v.1.15,2013-01-07 08:15:00,
2013-01-07 03:25:00,27.0,23.4,30.30,SW,221,0.0,0.0,86,0.00,,,0.00,Wunderground v.1.15,2013-01-07 08:25:00,
2013-01-07 03:30:00,26.9,23.0,30.31,SW,221,0.0,0.0,85,0.00,,,0.00,Wunderground v.1.15,2013-01-07 08:30:00,
2013-01-07 03:40:00,27.0,23.4,30.31,SW,221,0.0,0.0,86,0.00,,,0.00,Wunderground v.1.15,2013-01-07 08:40:00,
2013-01-07 03:45:00,27.0,23.4,30.31,SW,221,0.0,0.0,86,0.00,,,0.00,Wunderground v.1.15,2013-01-07 08:45:00,
2013-01-07 03:55:00,26.9,23.0,30.31,SW,221,0.0,0.0,85,0.00,,,0.00,Wunderground v.1.15,2013-01-07 08:55:00,
2013-01-07 04:00:00,26.9,23.0,30.32,SW,221,0.0,0.0,85,0.00,,,0.00,Wunderground v.1.15,2013-01-07 09:00:00,
2013-01-07 04:10:00,26.9,23.0,30.32,SW,221,0.0,0.0,85,0.00,,,0.00,Wunderground v.1.15,2013-01-07 09:10:00,
2013-01-07 04:15:00,27.0,23.4,30.33,SW,221,0.0,0.0,86,0.00,,,0.00,Wunderground v.1.15,2013-01-07 09:15:00,
2013-01-07 04:25:00,27.0,23.4,30.33,SW,221,0.0,0.0,86,0.00,,,0.00,Wunderground v.1.15,2013-01-07 09:25:00,
2013-01-07 04:30:00,27.0,23.4,30.32,SW,221,0.0,0.0,86,0.00,,,0.00,Wunderground v.1.15,2013-01-07 09:30:00,
2013-01-07 04:40:00,27.0,23.4,30.32,SW,221,0.0,0.0,86,0.00,,,0.00,Wunderground v.1.15,2013-01-07 09:40:00,
2013-01-07 04:45:00,27.0,23.4,30.33,SW,221,0.0,0.0,86,0.00,,,0.00,Wunderground v.1.15,2013-01-07 09:45:00,
2013-01-07 04:55:00,27.0,23.4,30.33,SW,221,0.0,0.0,86,0.00,,,0.00,Wunderground v.1.15,2013-01-07 09:55:00,
2013-01-07 05:00:00,27.0,23.4,30.33,SW,221,0.0,0.0,86,0.00,,,0.00,Wunderground v.1.15,2013-01-07 10:00:00,
2013-01-07 05:10:00,27.0,23.4,30.33,SW,221,0.0,0.0,86,0.00,,,0.00,Wunderground v.1.15,2013-01-07 10:10:00,
2013-01-07 05:15:00,27.0,23.4,30.33,SW,221,0.0,0.0,86,0.00,,,0.00,Wunderground v.1.15,2013-01-07 10:15:00,
2013-01-07 05:25:00,27.2,23.6,30.33,SW,221,0.0,0.0,86,0.00,,,0.00,Wunderground v.1.15,2013-01-07 10:25:00,
2013-01-07 05:30:00,27.2,23.6,30.33,SW,221,0.0,0.0,86,0.00,,,0.00,Wunderground v.1.15,2013-01-07 10:30:00,
2013-01-07 05:40:00,27.2,23.6,30.33,SW,221,0.0,0.0,86,0.00,,,0.00,Wunderground v.1.15,2013-01-07 10:40:00,
2013-01-07 05:45:00,27.2,23.6,30.34,SW,221,0.0,0.0,86,0.00,,,0.00,Wunderground v.1.15,2013-01-07 10:45:00,
2013-01-07 05:55:00,27.2,23.6,30.34,SW,221,0.0,0.0,86,0.00,,,0.00,Wunderground v.1.15,2013-01-07 10:55:00,
2013-01-07 06:00:00,27.2,23.6,30.34,SW,221,0.0,0.0,86,0.00,,,0.00,Wunderground v.1.15,2013-01-07 11:00:00,
2013-01-07 06:10:00,27.2,23.6,30.34,SW,221,0.0,0.0,86,0.00,,,0.00,Wunderground v.1.15,2013-01-07 11:10:00,
2013-01-07 06:15:00,27.2,23.6,30.35,SW,221,0.0,0.0,86,0.00,,,0.00,Wunderground v.1.15,2013-01-07 11:15:00,
2013-01-07 06:25:00,27.0,23.4,30.35,SW,221,0.0,0.0,86,0.00,,,0.00,Wunderground v.1.15,2013-01-07 11:25:00,
2013-01-07 06:30:00,27.0,23.4,30.35,SW,221,0.0,0.0,86,0.00,,,0.00,Wunderground v.1.15,2013-01-07 11:30:00,
2013-01-07 06:40:00,26.9,23.3,30.35,SW,221,0.0,0.0,86,0.00,,,0.00,Wunderground v.1.15,2013-01-07 11:40:00,
2013-01-07 06:45:00,26.9,23.5,30.35,SW,221,0.0,0.0,87,0.00,,,0.00,Wunderground v.1.15,2013-01-07 11:45:00,
2013-01-07 06:55:00,26.7,23.4,30.35,SW,221,0.0,0.0,87,0.00,,,0.00,Wunderground v.1.15,2013-01-07 11:55:00,
2013-01-07 07:00:00,26.7,23.4,30.36,SW,221,0.0,0.0,87,0.00,,,0.00,Wunderground v.1.15,2013-01-07 12:00:00,
2013-01-07 07:10:00,26.6,23.3,30.36,SW,221,0.0,0.0,87,0.00,,,0.00,Wunderground v.1.15,2013-01-07 12:10:00,
2013-01-07 07:15:00,26.6,23.5,30.37,SW,221,0.0,0.0,88,0.00,,,0.00,Wunderground v.1.15,2013-01-07 12:15:00,
2013-01-07 07:25:00,26.6,23.5,30.37,SW,221,0.0,0.0,88,0.00,,,0.00,Wunderground v.1.15,2013-01-07 12:25:00,
2013-01-07 07:30:00,26.6,23.5,30.38,SW,221,0.0,0.0,88,0.00,,,0.00,Wunderground v.1.15,2013-01-07 12:30:00,
2013-01-07 07:40:00,26.7,23.6,30.38,SW,221,0.0,0.0,88,0.00,,,0.00,Wunderground v.1.15,2013-01-07 12:40:00,
2013-01-07 07:45:00,26.7,23.6,30.39,SW,221,0.0,0.0,88,0.00,,,0.00,Wunderground v.1.15,2013-01-07 12:45:00,
2013-01-07 07:55:00,26.9,23.8,30.39,SW,221,0.0,0.0,88,0.00,,,0.00,Wunderground v.1.15,2013-01-07 12:55:00,
2013-01-07 08:00:00,26.9,23.8,30.39,SW,221,0.0,0.0,88,0.00,,,0.00,Wunderground v.1.15,2013-01-07 13:00:00,
2013-01-07 08:10:00,27.0,23.9,30.39,SSW,200,0.0,0.0,88,0.00,,,0.00,Wunderground v.1.15,2013-01-07 13:10:00,
2013-01-07 08:15:00,27.0,23.6,30.40,SSW,200,0.0,0.0,87,0.00,,,0.00,Wunderground v.1.15,2013-01-07 13:15:00,
2013-01-07 08:25:00,27.2,23.8,30.40,SW,225,0.0,0.0,87,0.00,,,0.00,Wunderground v.1.15,2013-01-07 13:25:00,
2013-01-07 08:30:00,27.2,23.8,30.41,SW,225,0.0,0.0,87,0.00,,,0.00,Wunderground v.1.15,2013-01-07 13:30:00,
2013-01-07 08:40:00,27.3,23.7,30.41,SSE,167,1.0,1.0,86,0.00,,,0.00,Wunderground v.1.15,2013-01-07 13:40:00,
2013-01-07 08:45:00,27.3,23.7,30.41,SSE,165,0.0,1.0,86,0.00,,,0.00,Wunderground v.1.15,2013-01-07 13:45:00,
2013-01-07 08:55:00,27.5,23.9,30.41,SSE,165,0.0,1.0,86,0.00,,,0.00,Wunderground v.1.15,2013-01-07 13:55:00,
2013-01-07 09:00:00,27.6,24.0,30.42,SSE,165,0.0,0.0,86,0.00,,,0.00,Wunderground v.1.15,2013-01-07 14:00:00,
2013-01-07 09:10:00,27.6,24.0,30.42,SSE,165,0.0,0.0,86,0.00,,,0.00,Wunderground v.1.15,2013-01-07 14:10:00,
2013-01-07 09:15:00,27.8,23.9,30.43,WSW,248,1.0,1.0,85,0.00,,,0.00,Wunderground v.1.15,2013-01-07 14:15:00,
2013-01-07 09:25:00,27.9,24.0,30.43,SSW,200,0.0,0.0,85,0.00,,,0.00,Wunderground v.1.15,2013-01-07 14:25:00,
2013-01-07 09:30:00,28.1,24.2,30.43,SSW,200,0.0,0.0,85,0.00,,,0.00,Wunderground v.1.15,2013-01-07 14:30:00,
2013-01-07 09:40:00,28.2,24.0,30.43,SSW,198,1.0,1.0,84,0.00,,,0.00,Wunderground v.1.15,2013-01-07 14:40:00,
2013-01-07 09:45:00,28.4,24.2,30.43,South,189,1.0,1.0,84,0.00,,,0.00,Wunderground v.1.15,2013-01-07 14:45:00,
2013-01-07 09:55:00,28.5,24.0,30.43,South,174,1.0,2.0,83,0.00,,,0.00,Wunderground v.1.15,2013-01-07 14:55:00,
2013-01-07 10:00:00,28.7,24.2,30.43,SE,145,1.0,1.0,83,0.00,,,0.00,Wunderground v.1.15,2013-01-07 15:00:00,
2013-01-07 10:10:00,29.0,24.2,30.43,West,278,1.0,1.0,82,0.00,,,0.00,Wunderground v.1.15,2013-01-07 15:10:00,
2013-01-07 10:15:00,29.1,24.3,30.45,WSW,240,1.0,1.0,82,0.00,,,0.00,Wunderground v.1.15,2013-01-07 15:15:00,
2013-01-07 10:25:00,29.4,24.3,30.45,South,188,0.0,3.0,81,0.00,,,0.00,Wunderground v.1.15,2013-01-07 15:25:00,
2013-01-07 10:30:00,29.5,24.1,30.45,SSE,167,1.0,2.0,80,0.00,,,0.00,Wunderground v.1.15,2013-01-07 15:30:00,
2013-01-07 10:40:00,29.7,24.3,30.45,SSE,164,1.0,1.0,80,0.00,,,0.00,Wunderground v.1.15,2013-01-07 15:40:00,
2013-01-07 10:45:00,29.8,24.1,30.44,South,183,1.0,6.0,79,0.00,,,0.00,Wunderground v.1.15,2013-01-07 15:45:00,
2013-01-07 10:55:00,30.0,24.0,30.44,SSW,203,1.0,1.0,78,0.00,,,0.00,Wunderground v.1.15,2013-01-07 15:55:00,
2013-01-07 11:00:00,30.3,24.3,30.44,SSW,205,1.0,1.0,78,0.00,,,0.00,Wunderground v.1.15,2013-01-07 16:00:00,
2013-01-07 11:05:00,30.4,24.1,30.44,WSW,253,1.0,1.0,77,0.00,,,0.00,Wunderground v.1.15,2013-01-07 16:05:00,
2013-01-07 11:15:00,30.9,24.5,30.43,South,186,1.0,1.0,77,0.00,,,0.00,Wunderground v.1.15,2013-01-07 16:15:00,
2013-01-07 11:25:00,31.2,24.2,30.43,SSW,196,1.0,1.0,75,0.00,,,0.00,Wunderground v.1.15,2013-01-07 16:25:00,
2013-01-07 11:30:00,31.2,24.5,30.42,SW,224,1.0,2.0,76,0.00,,,0.00,Wunderground v.1.15,2013-01-07 16:30:00,
2013-01-07 11:40:00,31.5,24.5,30.42,SSW,193,1.0,1.0,75,0.00,,,0.00,Wunderground v.1.15,2013-01-07 16:40:00,
2013-01-07 11:45:00,31.6,23.6,30.42,SW,229,1.0,1.0,72,0.00,,,0.00,Wunderground v.1.15,2013-01-07 16:45:00,
2013-01-07 11:55:00,31.6,22.6,30.42,West,271,1.0,2.0,69,0.00,,,0.00,Wunderground v.1.15,2013-01-07 16:55:00,
2013-01-07 12:00:00,31.6,22.2,30.40,South,174,2.0,4.0,68,0.00,,,0.00,Wunderground v.1.15,2013-01-07 17:00:00,
2013-01-07 12:05:00,31.8,21.7,30.40,South,184,2.0,4.0,66,0.00,,,0.00,Wunderground v.1.15,2013-01-07 17:05:00,
2013-01-07 12:15:00,32.1,21.7,30.40,SW,233,1.0,3.0,65,0.00,,,0.00,Wunderground v.1.15,2013-01-07 17:15:00,
2013-01-07 12:25:00,32.7,21.9,30.40,South,186,1.0,2.0,64,0.00,,,0.00,Wunderground v.1.15,2013-01-07 17:25:00,
2013-01-07 12:31:00,32.8,22.7,30.38,South,173,1.0,1.0,66,0.00,,,0.01,Wunderground v.1.15,2013-01-07 17:31:00,
2013-01-07 12:40:00,32.8,22.3,30.38,SSW,208,2.0,3.0,65,0.00,,,0.01,Wunderground v.1.15,2013-01-07 17:40:00,
2013-01-07 12:45:00,32.2,21.7,30.38,South,184,2.0,3.0,65,0.00,,,0.01,Wunderground v.1.15,2013-01-07 17:45:00,
2013-01-07 12:55:00,32.9,22.4,30.38,South,175,1.0,2.0,65,0.00,,,0.01,Wunderground v.1.15,2013-01-07 17:55:00,
2013-01-07 13:00:00,33.1,22.2,30.37,SW,223,2.0,2.0,64,0.00,,,0.01,Wunderground v.1.15,2013-01-07 18:00:00,
2013-01-07 13:10:00,32.8,22.3,30.37,SSE,159,2.0,2.0,65,0.00,,,0.01,Wunderground v.1.15,2013-01-07 18:10:00,
2013-01-07 13:15:00,33.1,22.2,30.37,South,190,2.0,2.0,64,0.00,,,0.01,Wunderground v.1.15,2013-01-07 18:15:00,
2013-01-07 13:25:00,32.8,22.7,30.37,SW,221,2.0,4.0,66,0.00,,,0.01,Wunderground v.1.15,2013-01-07 18:25:00,
2013-01-07 13:30:00,32.9,22.4,30.37,SSW,209,2.0,3.0,65,0.00,,,0.01,Wunderground v.1.15,2013-01-07 18:30:00,
2013-01-07 13:40:00,33.5,22.6,30.37,SE,143,1.0,1.0,64,0.00,,,0.02,Wunderground v.1.15,2013-01-07 18:40:00,
2013-01-07 13:45:00,34.0,23.1,30.36,SSE,150,1.0,1.0,64,0.00,,,0.02,Wunderground v.1.15,2013-01-07 18:45:00,
2013-01-07 13:55:00,34.3,22.6,30.36,South,191,1.0,2.0,62,0.00,,,0.02,Wunderground v.1.15,2013-01-07 18:55:00,
2013-01-07 14:00:00,34.1,22.8,30.35,SE,142,2.0,2.0,63,0.00,,,0.03,Wunderground v.1.15,2013-01-07 19:00:00,
2013-01-07 14:05:00,34.1,22.4,30.35,SSW,194,1.0,2.0,62,0.00,,,0.03,Wunderground v.1.15,2013-01-07 19:05:00,
2013-01-07 14:15:00,34.3,22.6,30.35,SSW,194,2.0,3.0,62,0.00,,,0.03,Wunderground v.1.15,2013-01-07 19:15:00,
2013-01-07 14:25:00,33.8,22.5,30.35,SE,140,2.0,4.0,63,0.00,,,0.03,Wunderground v.1.15,2013-01-07 19:25:00,
2013-01-07 14:30:00,34.1,22.8,30.35,ESE,114,1.0,1.0,63,0.00,,,0.03,Wunderground v.1.15,2013-01-07 19:30:00,
2013-01-07 14:40:00,34.3,23.4,30.35,South,184,1.0,1.0,64,0.00,,,0.04,Wunderground v.1.15,2013-01-07 19:40:00,
2013-01-07 14:45:00,34.1,22.8,30.34,SSW,213,1.0,2.0,63,0.00,,,0.04,Wunderground v.1.15,2013-01-07 19:45:00,
2013-01-07 14:55:00,34.1,22.8,30.34,SSW,213,1.0,3.0,63,0.00,,,0.04,Wunderground v.1.15,2013-01-07 19:55:00,
2013-01-07 15:00:00,34.3,23.4,30.34,SSW,194,1.0,1.0,64,0.00,,,0.05,Wunderground v.1.15,2013-01-07 20:00:00,
2013-01-07 15:10:00,33.8,23.3,30.34,SW,224,1.0,3.0,65,0.00,,,0.05,Wunderground v.1.15,2013-01-07 20:10:00,
2013-01-07 15:15:00,33.5,22.6,30.34,ESE,123,1.0,3.0,64,0.00,,,0.05,Wunderground v.1.15,2013-01-07 20:15:00,
2013-01-07 15:25:00,33.4,23.3,30.34,ESE,123,0.0,1.0,66,0.00,,,0.05,Wunderground v.1.15,2013-01-07 20:25:00,
2013-01-07 15:30:00,33.4,23.3,30.34,SSE,165,0.0,0.0,66,0.00,,,0.05,Wunderground v.1.15,2013-01-07 20:30:00,
2013-01-07 15:40:00,33.1,23.0,30.34,SSE,152,0.0,0.0,66,0.00,,,0.05,Wunderground v.1.15,2013-01-07 20:40:00,
2013-01-07 15:45:00,32.8,23.4,30.33,SSE,152,0.0,0.0,68,0.00,,,0.05,Wunderground v.1.15,2013-01-07 20:45:00,
2013-01-07 15:50:00,32.5,23.1,30.33,SSE,152,0.0,0.0,68,0.00,,,0.05,Wunderground v.1.15,2013-01-07 20:50:00,
2013-01-07 15:55:00,32.4,23.0,30.33,SSE,152,0.0,0.0,68,0.00,,,0.05,Wunderground v.1.15,2013-01-07 20:55:00,
2013-01-07 16:00:00,32.4,23.0,30.33,SSE,152,0.0,0.0,68,0.00,,,0.05,Wunderground v.1.15,2013-01-07 21:00:00,
2013-01-07 16:10:00,32.1,22.7,30.33,SSW,198,0.0,1.0,68,0.00,,,0.06,Wunderground v.1.15,2013-01-07 21:10:00,
2013-01-07 16:15:00,32.1,22.7,30.33,SSW,198,0.0,1.0,68,0.00,,,0.06,Wunderground v.1.15,2013-01-07 21:15:00,
2013-01-07 16:25:00,32.1,22.7,30.33,SSW,200,0.0,1.0,68,0.00,,,0.06,Wunderground v.1.15,2013-01-07 21:25:00,
2013-01-07 16:30:00,32.1,22.7,30.33,SSW,200,0.0,0.0,68,0.00,,,0.06,Wunderground v.1.15,2013-01-07 21:30:00,
2013-01-07 16:40:00,31.6,22.6,30.33,SSW,200,0.0,1.0,69,0.00,,,0.06,Wunderground v.1.15,2013-01-07 21:40:00,
2013-01-07 16:45:00,31.6,22.6,30.33,SSW,200,0.0,1.0,69,0.00,,,0.06,Wunderground v.1.15,2013-01-07 21:45:00,
2013-01-07 16:55:00,31.2,22.5,30.33,SSW,200,0.0,1.0,70,0.00,,,0.06,Wunderground v.1.15,2013-01-07 21:55:00,
2013-01-07 17:00:00,31.0,22.4,30.32,SSW,200,0.0,0.0,70,0.00,,,0.06,Wunderground v.1.15,2013-01-07 22:00:00,
2013-01-07 17:10:00,30.6,22.3,30.32,SSW,200,0.0,0.0,71,0.00,,,0.06,Wunderground v.1.15,2013-01-07 22:10:00,
2013-01-07 17:15:00,30.1,21.8,30.32,SSW,200,0.0,0.0,71,0.00,,,0.06,Wunderground v.1.15,2013-01-07 22:15:00,
2013-01-07 17:25:00,29.4,21.8,30.32,SSW,200,0.0,0.0,73,0.00,,,0.06,Wunderground v.1.15,2013-01-07 22:25:00,
2013-01-07 17:30:00,29.1,21.8,30.32,SSW,200,0.0,0.0,74,0.00,,,0.06,Wunderground v.1.15,2013-01-07 22:30:00,
2013-01-07 17:40:00,28.5,21.3,30.32,SSW,200,0.0,0.0,74,0.00,,,0.06,Wunderground v.1.15,2013-01-07 22:40:00,
2013-01-07 17:45:00,28.1,21.2,30.32,SSW,200,0.0,0.0,75,0.00,,,0.06,Wunderground v.1.15,2013-01-07 22:45:00,
2013-01-07 17:55:00,27.8,20.9,30.32,SSW,200,0.0,0.0,75,0.00,,,0.06,Wunderground v.1.15,2013-01-07 22:55:00,
2013-01-07 18:00:00,27.3,20.7,30.31,SSW,200,0.0,0.0,76,0.00,,,0.06,Wunderground v.1.15,2013-01-07 23:00:00,
2013-01-07 18:10:00,26.9,20.7,30.31,SSW,200,0.0,0.0,77,0.00,,,0.06,Wunderground v.1.15,2013-01-07 23:10:00,
2013-01-07 18:15:00,26.6,20.1,30.31,SSW,200,0.0,0.0,76,0.00,,,0.06,Wunderground v.1.15,2013-01-07 23:15:00,
2013-01-07 18:25:00,26.0,20.1,30.31,SSW,200,0.0,0.0,78,0.00,,,0.06,Wunderground v.1.15,2013-01-07 23:25:00,
2013-01-07 18:30:00,25.7,20.1,30.31,SSW,200,0.0,0.0,79,0.00,,,0.06,Wunderground v.1.15,2013-01-07 23:30:00,
2013-01-07 18:40:00,26.0,20.4,30.31,SSW,200,0.0,0.0,79,0.00,,,0.06,Wunderground v.1.15,2013-01-07 23:40:00,
2013-01-07 18:45:00,25.7,20.1,30.30,SSW,200,0.0,0.0,79,0.00,,,0.06,Wunderground v.1.15,2013-01-07 23:45:00,
2013-01-07 18:55:00,25.3,20.0,30.30,SSW,200,0.0,0.0,80,0.00,,,0.06,Wunderground v.1.15,2013-01-07 23:55:00,
2013-01-07 19:00:00,25.0,19.7,30.29,SSW,200,0.0,0.0,80,0.00,,,0.06,Wunderground v.1.15,2013-01-08 00:00:00,
2013-01-07 19:10:00,24.4,19.1,30.29,SSW,200,0.0,0.0,80,0.00,,,0.06,Wunderground v.1.15,2013-01-08 00:10:00,
2013-01-07 19:15:00,24.7,20.3,30.29,SSW,200,0.0,0.0,83,0.00,,,0.06,Wunderground v.1.15,2013-01-08 00:15:00,
2013-01-07 19:25:00,25.3,20.9,30.29,SSW,200,0.0,0.0,83,0.00,,,0.06,Wunderground v.1.15,2013-01-08 00:25:00,
2013-01-07 19:30:00,25.4,21.0,30.28,SSW,200,0.0,0.0,83,0.00,,,0.06,Wunderground v.1.15,2013-01-08 00:30:00,
2013-01-07 19:40:00,26.6,22.1,30.28,SSW,200,0.0,0.0,83,0.00,,,0.06,Wunderground v.1.15,2013-01-08 00:40:00,
2013-01-07 19:45:00,26.9,21.8,30.28,SSW,200,0.0,0.0,81,0.00,,,0.06,Wunderground v.1.15,2013-01-08 00:45:00,
2013-01-07 19:55:00,27.0,21.7,30.28,SSW,200,0.0,0.0,80,0.00,,,0.06,Wunderground v.1.15,2013-01-08 00:55:00,
2013-01-07 20:00:00,27.2,21.8,30.28,SSW,200,0.0,0.0,80,0.00,,,0.06,Wunderground v.1.15,2013-01-08 01:00:00,
2013-01-07 20:05:00,27.0,21.7,30.28,SSW,200,0.0,0.0,80,0.00,,,0.06,Wunderground v.1.15,2013-01-08 01:05:00,
2013-01-07 20:15:00,26.3,20.7,30.29,SSW,200,0.0,0.0,79,0.00,,,0.06,Wunderground v.1.15,2013-01-08 01:15:00,
2013-01-07 20:25:00,26.3,21.3,30.29,SSW,200,0.0,0.0,81,0.00,,,0.06,Wunderground v.1.15,2013-01-08 01:25:00,
2013-01-07 20:30:00,26.1,21.1,30.28,SSW,200,0.0,0.0,81,0.00,,,0.06,Wunderground v.1.15,2013-01-08 01:30:00,
2013-01-07 20:40:00,26.1,21.1,30.28,SSW,200,0.0,0.0,81,0.00,,,0.06,Wunderground v.1.15,2013-01-08 01:40:00,
2013-01-07 20:45:00,26.0,21.0,30.28,SSW,200,0.0,0.0,81,0.00,,,0.06,Wunderground v.1.15,2013-01-08 01:45:00,
2013-01-07 20:55:00,25.6,20.9,30.28,SSW,200,0.0,0.0,82,0.00,,,0.06,Wunderground v.1.15,2013-01-08 01:55:00,
2013-01-07 21:00:00,25.3,20.6,30.28,SSW,200,0.0,0.0,82,0.00,,,0.06,Wunderground v.1.15,2013-01-08 02:00:00,
2013-01-07 21:10:00,24.7,20.0,30.28,SSW,200,0.0,0.0,82,0.00,,,0.06,Wunderground v.1.15,2013-01-08 02:10:00,
2013-01-07 21:15:00,24.5,20.4,30.27,SSW,200,0.0,0.0,84,0.00,,,0.06,Wunderground v.1.15,2013-01-08 02:15:00,
2013-01-07 21:25:00,24.5,20.6,30.27,SSW,200,0.0,0.0,85,0.00,,,0.06,Wunderground v.1.15,2013-01-08 02:25:00,
2013-01-07 21:30:00,24.5,20.6,30.26,SSW,200,0.0,0.0,85,0.00,,,0.06,Wunderground v.1.15,2013-01-08 02:30:00,
2013-01-07 21:40:00,24.4,20.5,30.26,SSW,200,0.0,0.0,85,0.00,,,0.06,Wunderground v.1.15,2013-01-08 02:40:00,
2013-01-07 21:45:00,24.1,20.2,30.25,SSW,200,0.0,0.0,85,0.00,,,0.06,Wunderground v.1.15,2013-01-08 02:45:00,
2013-01-07 21:55:00,23.6,19.8,30.25,SSW,200,0.0,0.0,85,0.00,,,0.06,Wunderground v.1.15,2013-01-08 02:55:00,
2013-01-07 22:00:00,23.3,19.5,30.25,SSW,200,0.0,0.0,85,0.00,,,0.06,Wunderground v.1.15,2013-01-08 03:00:00,
2013-01-07 22:05:00,22.9,19.1,30.25,SSW,200,0.0,0.0,85,0.00,,,0.06,Wunderground v.1.15,2013-01-08 03:05:00,
2013-01-07 22:15:00,22.4,18.6,30.25,SSW,200,0.0,0.0,85,0.00,,,0.06,Wunderground v.1.15,2013-01-08 03:15:00,
2013-01-07 22:25:00,22.1,18.6,30.25,SSW,200,0.0,0.0,86,0.00,,,0.06,Wunderground v.1.15,2013-01-08 03:25:00,
2013-01-07 22:30:00,22.2,19.2,30.24,SSW,200,0.0,0.0,88,0.00,,,0.06,Wunderground v.1.15,2013-01-08 03:30:00,
2013-01-07 22:40:00,22.5,19.5,30.24,SSW,200,0.0,0.0,88,0.00,,,0.06,Wunderground v.1.15,2013-01-08 03:40:00,
2013-01-07 22:45:00,22.4,19.4,30.24,SSW,200,0.0,0.0,88,0.00,,,0.06,Wunderground v.1.15,2013-01-08 03:45:00,
2013-01-07 22:55:00,21.4,18.4,30.24,SSW,200,0.0,0.0,88,0.00,,,0.06,Wunderground v.1.15,2013-01-08 03:55:00,
2013-01-07 23:00:00,21.1,18.1,30.24,SSW,200,0.0,0.0,88,0.00,,,0.06,Wunderground v.1.15,2013-01-08 04:00:00,
2013-01-07 23:10:00,20.5,17.5,30.24,SSW,200,0.0,0.0,88,0.00,,,0.06,Wunderground v.1.15,2013-01-08 04:10:00,
2013-01-07 23:15:00,20.2,17.2,30.25,SSW,200,0.0,0.0,88,0.00,,,0.06,Wunderground v.1.15,2013-01-08 04:15:00,
2013-01-07 23:25:00,19.7,16.7,30.25,SSW,200,0.0,0.0,88,0.00,,,0.06,Wunderground v.1.15,2013-01-08 04:25:00,
2013-01-07 23:30:00,19.7,16.7,30.25,SSW,200,0.0,0.0,88,0.00,,,0.06,Wunderground v.1.15,2013-01-08 04:30:00,
2013-01-07 23:40:00,19.2,16.2,30.25,SSW,200,0.0,0.0,88,0.00,,,0.06,Wunderground v.1.15,2013-01-08 04:40:00,
2013-01-07 23:45:00,19.1,16.1,30.25,SSW,200,0.0,0.0,88,0.00,,,0.06,Wunderground v.1.15,2013-01-08 04:45:00,
2013-01-07 23:55:00,18.9,15.9,30.25,SSW,200,0.0,0.0,88,0.00,,,0.06,Wunderground v.1.15,2013-01-08 04:55:00,